Time,TemperatureF,DewpointF,PressureIn,WindDirection,WindDirectionDegrees,WindSpeedMPH,WindSpeedGustMPH,Humidity,HourlyPrecipIn,Conditions,Clouds,dailyrainin,SoftwareType,DateUTC
2013-04-03 00:00:00,33.3,34.5,29.95,NW,323,5.0,18.0,54,0.00,,,0.00,meteohub,2013-04-03 04:00:00,
2013-04-03 00:05:00,33.3,34.5,29.95,NNW,334,6.0,24.0,55,0.00,,,0.00,meteohub,2013-04-03 04:05:00,
2013-04-03 00:10:00,33.1,35.6,29.95,WNW,300,2.0,24.0,56,0.00,,,0.00,meteohub,2013-04-03 04:10:00,
2013-04-03 00:15:00,33.1,35.6,29.95,NNW,338,6.0,16.0,56,0.00,,,0.00,meteohub,2013-04-03 04:15:00,
2013-04-03 00:20:00,32.9,35.6,29.95,NNW,329,4.0,12.0,56,0.00,,,0.00,meteohub,2013-04-03 04:20:00,
2013-04-03 00:25:00,32.7,35.6,29.95,North,0,6.0,12.0,55,0.00,,,0.00,meteohub,2013-04-03 04:25:00,
2013-04-03 00:30:00,32.7,35.6,29.95,NW,311,0.0,13.0,55,0.00,,,0.00,meteohub,2013-04-03 04:30:00,
2013-04-03 00:35:00,32.7,35.6,29.95,NNW,338,7.0,13.0,56,0.00,,,0.00,meteohub,2013-04-03 04:35:00,
2013-04-03 00:40:00,32.5,35.6,29.95,NW,321,6.0,9.0,56,0.00,,,0.00,meteohub,2013-04-03 04:40:00,
2013-04-03 00:45:00,32.5,35.6,29.94,WNW,286,6.0,10.0,57,0.00,,,0.00,meteohub,2013-04-03 04:45:00,
2013-04-03 00:50:00,32.7,35.2,29.94,ESE,120,4.0,10.0,58,0.00,,,0.00,meteohub,2013-04-03 04:50:00,
2013-04-03 00:55:00,32.7,35.2,29.94,NW,321,9.0,10.0,59,0.00,,,0.00,meteohub,2013-04-03 04:55:00,
2013-04-03 01:00:00,32.7,35.1,29.95,NW,315,5.0,13.0,61,0.00,,,0.00,meteohub,2013-04-03 05:00:00,
2013-04-03 01:05:00,32.5,35.1,29.94,North,350,2.0,13.0,62,0.00,,,0.00,meteohub,2013-04-03 05:05:00,
2013-04-03 01:10:00,32.4,35.2,29.94,West,259,6.0,10.0,62,0.00,,,0.00,meteohub,2013-04-03 05:10:00,
2013-04-03 01:15:00,32.4,35.6,29.95,North,9,6.0,12.0,63,0.00,,,0.00,meteohub,2013-04-03 05:15:00,
2013-04-03 01:20:00,32.2,35.6,29.95,NW,306,2.0,12.0,63,0.00,,,0.00,meteohub,2013-04-03 05:20:00,
2013-04-03 01:25:00,32.2,35.2,29.95,North,0,0.0,12.0,64,0.00,,,0.00,meteohub,2013-04-03 05:25:00,
2013-04-03 01:31:00,32.0,35.2,29.96,NW,325,1.0,9.0,64,0.00,,,0.00,meteohub,2013-04-03 05:31:00,
2013-04-03 01:36:00,31.8,35.2,29.96,NNW,332,0.0,9.0,64,0.00,,,0.00,meteohub,2013-04-03 05:36:00,
2013-04-03 01:41:00,31.8,36.3,29.96,WNW,302,1.0,9.0,63,0.00,,,0.00,meteohub,2013-04-03 05:41:00,
2013-04-03 01:46:00,31.8,36.3,29.96,North,0,2.0,9.0,61,0.00,,,0.00,meteohub,2013-04-03 05:46:00,
2013-04-03 01:51:00,31.8,35.2,29.96,NNW,333,4.0,10.0,59,0.00,,,0.00,meteohub,2013-04-03 05:51:00,
2013-04-03 01:56:00,31.8,35.1,29.96,NW,325,5.0,10.0,59,0.00,,,0.00,meteohub,2013-04-03 05:56:00,
2013-04-03 02:01:00,31.8,35.1,29.96,NW,318,2.0,10.0,59,0.00,,,0.00,meteohub,2013-04-03 06:01:00,
2013-04-03 02:06:00,31.8,35.1,29.96,NW,314,2.0,8.0,59,0.00,,,0.00,meteohub,2013-04-03 06:06:00,
2013-04-03 02:12:00,31.8,36.1,29.96,WNW,300,1.0,8.0,59,0.00,,,0.00,meteohub,2013-04-03 06:12:00,
2013-04-03 02:17:00,31.8,36.3,29.96,North,5,3.0,8.0,58,0.00,,,0.00,meteohub,2013-04-03 06:17:00,
2013-04-03 02:22:00,32.0,36.3,29.95,NNW,330,5.0,12.0,56,0.00,,,0.00,meteohub,2013-04-03 06:22:00,
2013-04-03 02:27:00,32.0,36.3,29.95,WSW,255,5.0,14.0,56,0.00,,,0.00,meteohub,2013-04-03 06:27:00,
2013-04-03 02:32:00,32.0,36.1,29.95,NNW,341,8.0,14.0,57,0.00,,,0.00,meteohub,2013-04-03 06:32:00,
2013-04-03 02:37:00,31.8,36.1,29.95,NNW,327,1.0,15.0,58,0.00,,,0.00,meteohub,2013-04-03 06:37:00,
2013-04-03 02:42:00,31.6,36.1,29.95,WNW,291,8.0,15.0,60,0.00,,,0.00,meteohub,2013-04-03 06:42:00,
2013-04-03 02:47:00,31.6,36.1,29.95,NW,315,3.0,16.0,62,0.00,,,0.00,meteohub,2013-04-03 06:47:00,
2013-04-03 02:52:00,31.5,36.1,29.96,NW,318,6.0,16.0,63,0.00,,,0.00,meteohub,2013-04-03 06:52:00,
2013-04-03 02:57:00,31.5,36.1,29.96,NW,322,1.0,16.0,63,0.00,,,0.00,meteohub,2013-04-03 06:57:00,
2013-04-03 03:02:00,31.5,36.1,29.96,NW,319,7.0,11.0,64,0.00,,,0.00,meteohub,2013-04-03 07:02:00,
2013-04-03 03:07:00,31.5,36.1,29.96,West,278,6.0,9.0,64,0.00,,,0.00,meteohub,2013-04-03 07:07:00,
2013-04-03 03:12:00,31.3,36.1,29.95,NW,315,5.0,15.0,64,0.00,,,0.00,meteohub,2013-04-03 07:12:00,
2013-04-03 03:17:00,31.3,36.1,29.95,NNW,328,5.0,15.0,63,0.00,,,0.00,meteohub,2013-04-03 07:17:00,
2013-04-03 03:22:00,31.3,36.1,29.95,NW,325,6.0,12.0,63,0.00,,,0.00,meteohub,2013-04-03 07:22:00,
2013-04-03 03:27:00,31.1,36.3,29.95,NW,313,6.0,12.0,65,0.00,,,0.00,meteohub,2013-04-03 07:27:00,
2013-04-03 03:32:00,30.9,36.1,29.95,NNW,335,6.0,14.0,67,0.00,,,0.00,meteohub,2013-04-03 07:32:00,
2013-04-03 03:37:00,30.7,36.1,29.95,WNW,298,0.0,14.0,68,0.00,,,0.00,meteohub,2013-04-03 07:37:00,
2013-04-03 03:42:00,30.7,36.1,29.95,NW,309,7.0,14.0,67,0.00,,,0.00,meteohub,2013-04-03 07:42:00,
2013-04-03 03:47:00,30.7,36.1,29.95,NW,325,2.0,10.0,66,0.00,,,0.00,meteohub,2013-04-03 07:47:00,
2013-04-03 03:52:00,30.7,36.1,29.95,WNW,290,3.0,11.0,64,0.00,,,0.00,meteohub,2013-04-03 07:52:00,
2013-04-03 03:57:00,30.7,36.0,29.95,NNW,330,1.0,11.0,63,0.00,,,0.00,meteohub,2013-04-03 07:57:00,
2013-04-03 04:02:00,30.7,36.1,29.95,NNW,346,7.0,11.0,63,0.00,,,0.00,meteohub,2013-04-03 08:02:00,
2013-04-03 04:07:00,30.9,36.1,29.95,WNW,292,9.0,11.0,61,0.00,,,0.00,meteohub,2013-04-03 08:07:00,
2013-04-03 04:12:00,30.9,36.1,29.96,North,5,5.0,12.0,58,0.00,,,0.00,meteohub,2013-04-03 08:12:00,
2013-04-03 04:18:00,30.9,36.1,29.95,NW,304,4.0,12.0,58,0.00,,,0.00,meteohub,2013-04-03 08:18:00,
2013-04-03 04:23:00,30.9,36.1,29.95,NNW,340,5.0,12.0,57,0.00,,,0.00,meteohub,2013-04-03 08:23:00,
2013-04-03 04:28:00,30.7,36.1,29.96,WNW,292,10.0,12.0,56,0.00,,,0.00,meteohub,2013-04-03 08:28:00,
2013-04-03 04:33:00,30.7,36.1,29.95,WNW,285,4.0,11.0,56,0.00,,,0.00,meteohub,2013-04-03 08:33:00,
2013-04-03 04:38:00,30.7,36.1,29.95,NNW,339,2.0,13.0,56,0.00,,,0.00,meteohub,2013-04-03 08:38:00,
2013-04-03 04:43:00,30.7,36.1,29.95,North,350,6.0,13.0,56,0.00,,,0.00,meteohub,2013-04-03 08:43:00,
2013-04-03 04:48:00,30.6,36.1,29.95,NNW,327,4.0,13.0,56,0.00,,,0.00,meteohub,2013-04-03 08:48:00,
2013-04-03 04:53:00,30.6,36.1,29.96,NNW,344,0.0,12.0,56,0.00,,,0.00,meteohub,2013-04-03 08:53:00,
2013-04-03 04:58:00,30.6,36.1,29.95,NW,323,1.0,12.0,55,0.00,,,0.00,meteohub,2013-04-03 08:58:00,
2013-04-03 05:03:00,30.4,36.0,29.96,NNW,343,2.0,10.0,56,0.00,,,0.00,meteohub,2013-04-03 09:03:00,
2013-04-03 05:08:00,30.4,36.0,29.96,NW,322,2.0,10.0,56,0.00,,,0.00,meteohub,2013-04-03 09:08:00,
2013-04-03 05:13:00,30.2,36.1,29.97,WNW,294,4.0,10.0,56,0.00,,,0.00,meteohub,2013-04-03 09:13:00,
2013-04-03 05:18:00,30.2,36.1,29.97,NW,322,7.0,8.0,56,0.00,,,0.00,meteohub,2013-04-03 09:18:00,
2013-04-03 05:23:00,30.0,36.1,29.97,WNW,289,4.0,8.0,56,0.00,,,0.00,meteohub,2013-04-03 09:23:00,
2013-04-03 05:28:00,30.0,36.1,29.97,NW,321,2.0,9.0,56,0.00,,,0.00,meteohub,2013-04-03 09:28:00,
2013-04-03 05:33:00,29.8,36.1,29.97,WNW,287,5.0,9.0,56,0.00,,,0.00,meteohub,2013-04-03 09:33:00,
2013-04-03 05:38:00,29.8,37.0,29.97,NW,310,4.0,7.0,56,0.00,,,0.00,meteohub,2013-04-03 09:38:00,
2013-04-03 05:43:00,29.8,37.0,29.98,NNW,342,2.0,9.0,56,0.00,,,0.00,meteohub,2013-04-03 09:43:00,
2013-04-03 05:48:00,29.8,36.1,29.98,North,355,2.0,10.0,56,0.00,,,0.00,meteohub,2013-04-03 09:48:00,
2013-04-03 05:53:00,29.8,37.0,29.98,NNW,341,0.0,10.0,56,0.00,,,0.00,meteohub,2013-04-03 09:53:00,
2013-04-03 05:58:00,29.7,36.1,29.98,NW,311,1.0,10.0,57,0.00,,,0.00,meteohub,2013-04-03 09:58:00,
2013-04-03 06:03:00,29.7,36.0,29.98,NNW,331,1.0,9.0,56,0.00,,,0.00,meteohub,2013-04-03 10:03:00,
2013-04-03 06:08:00,29.7,36.0,29.98,NNW,334,4.0,12.0,56,0.00,,,0.00,meteohub,2013-04-03 10:08:00,
2013-04-03 06:13:00,29.7,36.9,29.99,NNW,327,4.0,12.0,56,0.00,,,0.00,meteohub,2013-04-03 10:13:00,
2013-04-03 06:18:00,29.5,37.0,29.99,West,279,3.0,10.0,56,0.00,,,0.00,meteohub,2013-04-03 10:18:00,
2013-04-03 06:23:00,29.5,37.0,29.99,NNW,335,2.0,10.0,56,0.00,,,0.00,meteohub,2013-04-03 10:23:00,
2013-04-03 06:28:00,29.5,37.0,29.99,NW,325,2.0,10.0,56,0.00,,,0.00,meteohub,2013-04-03 10:28:00,
2013-04-03 06:33:00,29.5,37.0,29.99,NW,310,1.0,10.0,56,0.00,,,0.00,meteohub,2013-04-03 10:33:00,
2013-04-03 06:38:00,29.3,37.0,29.99,NNW,343,5.0,8.0,57,0.00,,,0.00,meteohub,2013-04-03 10:38:00,
2013-04-03 06:43:00,29.3,37.0,29.99,WNW,302,0.0,7.0,57,0.00,,,0.00,meteohub,2013-04-03 10:43:00,
2013-04-03 06:48:00,29.3,37.0,30.00,NNW,333,5.0,7.0,57,0.00,,,0.00,meteohub,2013-04-03 10:48:00,
2013-04-03 06:53:00,29.3,37.0,29.99,NW,311,2.0,7.0,57,0.00,,,0.00,meteohub,2013-04-03 10:53:00,
2013-04-03 06:58:00,29.3,37.0,30.00,NW,310,1.0,7.0,57,0.00,,,0.00,meteohub,2013-04-03 10:58:00,
2013-04-03 07:04:00,29.5,36.9,30.00,NNW,338,2.0,7.0,56,0.00,,,0.00,meteohub,2013-04-03 11:04:00,
2013-04-03 07:09:00,29.5,36.9,30.01,NNW,340,0.0,7.0,56,0.00,,,0.00,meteohub,2013-04-03 11:09:00,
2013-04-03 07:14:00,29.7,37.0,30.01,NW,323,2.0,7.0,56,0.00,,,0.00,meteohub,2013-04-03 11:14:00,
2013-04-03 07:19:00,29.7,37.0,30.01,NW,307,0.0,7.0,56,0.00,,,0.00,meteohub,2013-04-03 11:19:00,
2013-04-03 07:24:00,30.0,37.0,30.01,NW,309,1.0,7.0,56,0.00,,,0.00,meteohub,2013-04-03 11:24:00,
2013-04-03 07:29:00,30.4,37.0,30.01,NNW,334,0.0,9.0,55,0.00,,,0.00,meteohub,2013-04-03 11:29:00,
2013-04-03 07:34:00,30.4,37.0,30.01,NW,308,7.0,9.0,54,0.00,,,0.00,meteohub,2013-04-03 11:34:00,
2013-04-03 07:39:00,30.6,37.0,30.01,NW,326,4.0,9.0,55,0.00,,,0.00,meteohub,2013-04-03 11:39:00,
2013-04-03 07:44:00,30.6,37.0,30.01,NW,310,4.0,9.0,54,0.00,,,0.00,meteohub,2013-04-03 11:44:00,
2013-04-03 07:49:00,30.7,37.0,30.01,NW,326,2.0,10.0,54,0.00,,,0.00,meteohub,2013-04-03 11:49:00,
2013-04-03 07:54:00,31.1,37.0,30.01,WNW,284,6.0,10.0,53,0.00,,,0.00,meteohub,2013-04-03 11:54:00,
2013-04-03 07:59:00,31.3,37.0,30.01,WNW,299,3.0,10.0,52,0.00,,,0.00,meteohub,2013-04-03 11:59:00,
2013-04-03 08:04:00,31.5,37.0,30.02,NW,315,2.0,10.0,53,0.00,,,0.00,meteohub,2013-04-03 12:04:00,
2013-04-03 08:09:00,31.6,37.0,30.01,NW,317,12.0,12.0,51,0.00,,,0.00,meteohub,2013-04-03 12:09:00,
2013-04-03 08:14:00,31.8,37.0,30.01,ENE,67,4.0,16.0,51,0.00,,,0.00,meteohub,2013-04-03 12:14:00,
2013-04-03 08:19:00,32.0,37.0,30.01,WNW,302,7.0,16.0,51,0.00,,,0.00,meteohub,2013-04-03 12:19:00,
2013-04-03 08:24:00,32.2,37.0,30.01,NW,318,4.0,16.0,50,0.00,,,0.00,meteohub,2013-04-03 12:24:00,
2013-04-03 08:29:00,32.4,37.0,30.01,NNW,340,1.0,15.0,50,0.00,,,0.00,meteohub,2013-04-03 12:29:00,
2013-04-03 08:34:00,32.7,37.0,30.01,North,0,3.0,15.0,50,0.00,,,0.00,meteohub,2013-04-03 12:34:00,
2013-04-03 08:39:00,33.1,37.0,30.01,NW,309,9.0,15.0,48,0.00,,,0.00,meteohub,2013-04-03 12:39:00,
2013-04-03 08:44:00,32.9,37.0,30.01,North,0,7.0,14.0,48,0.00,,,0.00,meteohub,2013-04-03 12:44:00,
2013-04-03 08:49:00,33.1,37.0,30.01,NW,317,10.0,12.0,48,0.00,,,0.00,meteohub,2013-04-03 12:49:00,
2013-04-03 08:54:00,33.3,37.0,30.01,NNW,345,2.0,13.0,48,0.00,,,0.00,meteohub,2013-04-03 12:54:00,
2013-04-03 08:59:00,33.4,37.0,30.00,WNW,300,5.0,16.0,49,0.00,,,0.00,meteohub,2013-04-03 12:59:00,
2013-04-03 09:04:00,34.0,37.0,30.01,North,0,7.0,16.0,48,0.00,,,0.00,meteohub,2013-04-03 13:04:00,
2013-04-03 09:09:00,34.0,37.0,30.00,NNW,342,6.0,13.0,48,0.00,,,0.00,meteohub,2013-04-03 13:09:00,
2013-04-03 09:14:00,34.3,37.0,30.00,NNW,342,6.0,12.0,48,0.00,,,0.00,meteohub,2013-04-03 13:14:00,
2013-04-03 09:19:00,34.5,37.0,30.00,NNE,19,6.0,12.0,46,0.00,,,0.00,meteohub,2013-04-03 13:19:00,
2013-04-03 09:24:00,34.5,37.0,30.00,WNW,302,6.0,14.0,46,0.00,,,0.00,meteohub,2013-04-03 13:24:00,
2013-04-03 09:29:00,34.3,37.0,30.00,NNW,341,4.0,14.0,46,0.00,,,0.00,meteohub,2013-04-03 13:29:00,
2013-04-03 09:34:00,34.5,37.0,30.00,NW,306,6.0,14.0,46,0.00,,,0.00,meteohub,2013-04-03 13:34:00,
2013-04-03 09:39:00,34.7,37.0,30.00,NW,304,1.0,14.0,45,0.00,,,0.00,meteohub,2013-04-03 13:39:00,
2013-04-03 09:44:00,34.7,37.0,30.00,NW,319,10.0,18.0,44,0.00,,,0.00,meteohub,2013-04-03 13:44:00,
2013-04-03 09:49:00,34.5,37.0,30.00,NNW,331,4.0,18.0,44,0.00,,,0.00,meteohub,2013-04-03 13:49:00,
2013-04-03 09:54:00,34.9,37.0,30.00,West,274,4.0,18.0,44,0.00,,,0.00,meteohub,2013-04-03 13:54:00,
2013-04-03 09:59:00,35.2,37.0,30.00,WNW,300,4.0,15.0,45,0.00,,,0.00,meteohub,2013-04-03 13:59:00,
2013-04-03 10:04:00,35.8,37.2,30.00,NNW,338,5.0,14.0,43,0.00,,,0.00,meteohub,2013-04-03 14:04:00,
2013-04-03 10:09:00,36.3,37.2,30.00,North,0,7.0,13.0,42,0.00,,,0.00,meteohub,2013-04-03 14:09:00,
2013-04-03 10:14:00,36.3,37.2,30.00,ENE,63,4.0,13.0,43,0.00,,,0.00,meteohub,2013-04-03 14:14:00,
2013-04-03 10:19:00,36.7,37.2,30.00,NNW,327,8.0,13.0,42,0.00,,,0.00,meteohub,2013-04-03 14:19:00,
2013-04-03 10:24:00,37.0,37.0,30.00,NNW,329,5.0,11.0,41,0.00,,,0.00,meteohub,2013-04-03 14:24:00,
2013-04-03 10:29:00,37.2,37.0,30.00,WNW,300,9.0,11.0,40,0.00,,,0.00,meteohub,2013-04-03 14:29:00,
2013-04-03 10:34:00,37.0,36.1,30.00,NNW,334,6.0,10.0,40,0.00,,,0.00,meteohub,2013-04-03 14:34:00,
2013-04-03 10:39:00,37.4,36.1,30.00,NW,309,4.0,11.0,40,0.00,,,0.00,meteohub,2013-04-03 14:39:00,
2013-04-03 10:44:00,37.6,36.1,30.00,NNW,337,19.0,19.0,38,0.00,,,0.00,meteohub,2013-04-03 14:44:00,
2013-04-03 10:50:00,37.6,36.1,29.99,NW,315,5.0,15.0,38,0.00,,,0.00,meteohub,2013-04-03 14:50:00,
2013-04-03 10:55:00,37.9,36.1,30.00,NNW,339,5.0,19.0,37,0.00,,,0.00,meteohub,2013-04-03 14:55:00,
2013-04-03 11:00:00,38.1,36.1,30.00,North,5,6.0,19.0,37,0.00,,,0.00,meteohub,2013-04-03 15:00:00,
2013-04-03 11:05:00,38.1,36.3,29.99,NNW,338,2.0,13.0,36,0.00,,,0.00,meteohub,2013-04-03 15:05:00,
2013-04-03 11:10:00,38.5,36.3,29.99,NNW,329,8.0,13.0,36,0.00,,,0.00,meteohub,2013-04-03 15:10:00,
2013-04-03 11:15:00,38.5,36.3,30.00,NNW,344,8.0,13.0,36,0.00,,,0.00,meteohub,2013-04-03 15:15:00,
2013-04-03 11:20:00,38.7,36.3,29.99,NW,323,8.0,11.0,37,0.00,,,0.00,meteohub,2013-04-03 15:20:00,
2013-04-03 11:25:00,38.7,36.3,29.99,WNW,299,4.0,11.0,37,0.00,,,0.00,meteohub,2013-04-03 15:25:00,
2013-04-03 11:30:00,38.7,36.3,29.99,WNW,299,2.0,14.0,36,0.00,,,0.00,meteohub,2013-04-03 15:30:00,
2013-04-03 11:35:00,39.2,36.3,30.00,NW,318,5.0,14.0,37,0.00,,,0.00,meteohub,2013-04-03 15:35:00,
2013-04-03 11:40:00,39.9,36.1,30.00,NNW,344,7.0,14.0,37,0.00,,,0.00,meteohub,2013-04-03 15:40:00,
2013-04-03 11:45:00,39.9,36.1,29.99,WNW,301,7.0,13.0,35,0.00,,,0.00,meteohub,2013-04-03 15:45:00,
2013-04-03 11:50:00,39.6,36.1,29.99,NNW,333,9.0,14.0,35,0.00,,,0.00,meteohub,2013-04-03 15:50:00,
2013-04-03 11:55:00,39.4,36.1,29.99,North,0,9.0,15.0,36,0.00,,,0.00,meteohub,2013-04-03 15:55:00,
2013-04-03 12:00:00,39.7,36.3,29.99,NNW,328,8.0,15.0,36,0.00,,,0.00,meteohub,2013-04-03 16:00:00,
2013-04-03 12:05:00,40.1,36.3,29.99,NNE,22,7.0,15.0,35,0.00,,,0.00,meteohub,2013-04-03 16:05:00,
2013-04-03 12:10:00,40.3,36.3,29.99,NNW,344,1.0,16.0,35,0.00,,,0.00,meteohub,2013-04-03 16:10:00,
2013-04-03 12:15:00,40.3,36.3,29.99,NNW,340,2.0,16.0,35,0.00,,,0.00,meteohub,2013-04-03 16:15:00,
2013-04-03 12:20:00,40.6,36.3,29.99,North,350,9.0,16.0,35,0.00,,,0.00,meteohub,2013-04-03 16:20:00,
2013-04-03 12:25:00,40.6,36.1,29.99,NNW,330,7.0,14.0,36,0.00,,,0.00,meteohub,2013-04-03 16:25:00,
2013-04-03 12:30:00,41.2,36.1,29.99,WNW,299,7.0,14.0,36,0.00,,,0.00,meteohub,2013-04-03 16:30:00,
2013-04-03 12:35:00,41.4,36.1,29.99,WNW,303,7.0,14.0,36,0.00,,,0.00,meteohub,2013-04-03 16:35:00,
2013-04-03 12:40:00,41.4,35.1,29.98,NNW,337,6.0,16.0,36,0.00,,,0.00,meteohub,2013-04-03 16:40:00,
2013-04-03 12:45:00,41.4,35.1,29.98,NNW,343,7.0,16.0,35,0.00,,,0.00,meteohub,2013-04-03 16:45:00,
2013-04-03 12:50:00,41.2,35.1,29.99,NW,319,7.0,16.0,34,0.00,,,0.00,meteohub,2013-04-03 16:50:00,
2013-04-03 12:55:00,41.2,35.2,29.98,WNW,292,8.0,18.0,35,0.00,,,0.00,meteohub,2013-04-03 16:55:00,
2013-04-03 13:00:00,41.5,35.2,29.99,NW,305,1.0,18.0,36,0.00,,,0.00,meteohub,2013-04-03 17:00:00,
2013-04-03 13:05:00,42.6,35.2,29.98,NNW,327,7.0,18.0,35,0.00,,,0.00,meteohub,2013-04-03 17:05:00,
2013-04-03 13:10:00,42.4,35.2,29.98,NNW,345,7.0,16.0,34,0.00,,,0.00,meteohub,2013-04-03 17:10:00,
2013-04-03 13:15:00,43.0,35.6,29.98,NNW,337,2.0,16.0,36,0.00,,,0.00,meteohub,2013-04-03 17:15:00,
2013-04-03 13:21:00,42.4,35.6,29.99,NW,313,7.0,16.0,36,0.00,,,0.00,meteohub,2013-04-03 17:21:00,
2013-04-03 13:26:00,42.3,35.6,29.98,NNW,344,5.0,14.0,35,0.00,,,0.00,meteohub,2013-04-03 17:26:00,
2013-04-03 13:31:00,42.1,35.6,29.99,NW,313,5.0,13.0,35,0.00,,,0.00,meteohub,2013-04-03 17:31:00,
2013-04-03 13:36:00,43.2,35.6,29.99,NNW,329,7.0,11.0,36,0.00,,,0.00,meteohub,2013-04-03 17:36:00,
2013-04-03 13:41:00,43.5,35.6,29.99,NNW,340,5.0,11.0,34,0.00,,,0.00,meteohub,2013-04-03 17:41:00,
2013-04-03 13:46:00,43.3,35.6,29.98,North,355,4.0,11.0,34,0.00,,,0.00,meteohub,2013-04-03 17:46:00,
2013-04-03 13:51:00,43.2,35.6,29.98,North,350,0.0,11.0,33,0.00,,,0.00,meteohub,2013-04-03 17:51:00,
2013-04-03 13:56:00,43.9,35.6,29.98,WNW,292,5.0,13.0,37,0.00,,,0.00,meteohub,2013-04-03 17:56:00,
2013-04-03 14:02:00,43.3,35.8,29.98,WNW,290,7.0,21.0,35,0.00,,,0.00,meteohub,2013-04-03 18:02:00,
2013-04-03 14:07:00,43.3,35.8,29.98,NNE,22,4.0,21.0,34,0.00,,,0.00,meteohub,2013-04-03 18:07:00,
2013-04-03 14:12:00,43.2,35.8,29.98,NW,322,6.0,21.0,33,0.00,,,0.00,meteohub,2013-04-03 18:12:00,
2013-04-03 14:17:00,43.3,35.8,29.98,NW,317,5.0,14.0,33,0.00,,,0.00,meteohub,2013-04-03 18:17:00,
2013-04-03 14:22:00,43.5,35.8,29.98,NNW,340,8.0,14.0,34,0.00,,,0.00,meteohub,2013-04-03 18:22:00,
2013-04-03 14:27:00,43.3,35.8,29.98,NW,319,9.0,14.0,33,0.00,,,0.00,meteohub,2013-04-03 18:27:00,
2013-04-03 14:32:00,43.7,35.8,29.98,NNE,19,8.0,14.0,34,0.00,,,0.00,meteohub,2013-04-03 18:32:00,
2013-04-03 14:37:00,43.9,35.8,29.97,NNW,345,8.0,12.0,33,0.00,,,0.00,meteohub,2013-04-03 18:37:00,
2013-04-03 14:42:00,44.6,35.8,29.98,NW,315,4.0,12.0,33,0.00,,,0.00,meteohub,2013-04-03 18:42:00,
2013-04-03 14:47:00,44.4,36.0,29.97,West,265,6.0,11.0,33,0.00,,,0.00,meteohub,2013-04-03 18:47:00,
2013-04-03 14:52:00,44.4,36.0,29.98,WNW,302,2.0,11.0,34,0.00,,,0.00,meteohub,2013-04-03 18:52:00,
2013-04-03 14:57:00,45.3,36.0,29.97,WNW,300,8.0,10.0,34,0.00,,,0.00,meteohub,2013-04-03 18:57:00,
2013-04-03 15:02:00,45.1,36.0,29.97,NE,34,1.0,10.0,33,0.00,,,0.00,meteohub,2013-04-03 19:02:00,
2013-04-03 15:08:00,45.0,36.0,29.98,North,5,8.0,12.0,32,0.00,,,0.00,meteohub,2013-04-03 19:08:00,
2013-04-03 15:13:00,44.4,36.0,29.97,NW,326,5.0,14.0,35,0.00,,,0.00,meteohub,2013-04-03 19:13:00,
2013-04-03 15:18:00,44.8,36.0,29.98,North,355,4.0,14.0,31,0.00,,,0.00,meteohub,2013-04-03 19:18:00,
2013-04-03 15:23:00,45.0,36.0,29.97,NNW,333,0.0,14.0,32,0.00,,,0.00,meteohub,2013-04-03 19:23:00,
2013-04-03 15:28:00,45.3,36.0,29.98,NNE,18,7.0,13.0,33,0.00,,,0.00,meteohub,2013-04-03 19:28:00,
2013-04-03 15:33:00,45.0,36.0,29.97,NNW,341,7.0,12.0,32,0.00,,,0.00,meteohub,2013-04-03 19:33:00,
2013-04-03 15:38:00,44.6,36.0,29.98,NW,317,5.0,18.0,34,0.00,,,0.00,meteohub,2013-04-03 19:38:00,
2013-04-03 15:43:00,44.6,36.0,29.97,NW,324,5.0,18.0,33,0.00,,,0.00,meteohub,2013-04-03 19:43:00,
2013-04-03 15:48:00,45.3,36.0,29.97,NNW,348,9.0,14.0,32,0.00,,,0.00,meteohub,2013-04-03 19:48:00,
2013-04-03 15:53:00,45.7,36.0,29.98,West,271,7.0,10.0,35,0.00,,,0.00,meteohub,2013-04-03 19:53:00,
2013-04-03 15:58:00,45.3,36.0,29.97,West,268,9.0,10.0,32,0.00,,,0.00,meteohub,2013-04-03 19:58:00,
2013-04-03 16:03:00,45.3,35.1,29.97,North,355,9.0,11.0,32,0.00,,,0.00,meteohub,2013-04-03 20:03:00,
2013-04-03 16:09:00,44.6,35.1,29.97,NW,323,1.0,13.0,34,0.00,,,0.00,meteohub,2013-04-03 20:09:00,
2013-04-03 16:14:00,45.1,35.1,29.97,WNW,300,4.0,13.0,33,0.00,,,0.00,meteohub,2013-04-03 20:14:00,
2013-04-03 16:19:00,45.0,35.1,29.96,NNW,342,1.0,13.0,34,0.00,,,0.00,meteohub,2013-04-03 20:19:00,
2013-04-03 16:24:00,45.0,35.1,29.97,NNW,338,4.0,16.0,34,0.00,,,0.00,meteohub,2013-04-03 20:24:00,
2013-04-03 16:29:00,45.0,35.1,29.97,NW,319,8.0,16.0,34,0.00,,,0.00,meteohub,2013-04-03 20:29:00,
2013-04-03 16:34:00,45.0,35.2,29.97,NNW,333,6.0,16.0,34,0.00,,,0.00,meteohub,2013-04-03 20:34:00,
2013-04-03 16:39:00,45.0,35.2,29.97,NNW,335,5.0,14.0,34,0.00,,,0.00,meteohub,2013-04-03 20:39:00,
2013-04-03 16:44:00,44.4,35.2,29.97,NW,320,4.0,14.0,33,0.00,,,0.00,meteohub,2013-04-03 20:44:00,
2013-04-03 16:49:00,44.4,36.3,29.97,NNW,343,9.0,12.0,33,0.00,,,0.00,meteohub,2013-04-03 20:49:00,
2013-04-03 16:55:00,44.6,36.7,29.98,NW,306,12.0,12.0,34,0.00,,,0.00,meteohub,2013-04-03 20:55:00,
2013-04-03 17:00:00,44.1,36.9,29.98,NNW,336,4.0,13.0,34,0.00,,,0.00,meteohub,2013-04-03 21:00:00,
2013-04-03 17:05:00,44.2,37.0,29.98,NNW,327,6.0,16.0,35,0.00,,,0.00,meteohub,2013-04-03 21:05:00,
2013-04-03 17:10:00,44.1,37.0,29.98,NNW,348,8.0,16.0,34,0.00,,,0.00,meteohub,2013-04-03 21:10:00,
2013-04-03 17:15:00,43.7,37.0,29.99,NNW,345,5.0,15.0,34,0.00,,,0.00,meteohub,2013-04-03 21:15:00,
2013-04-03 17:20:00,43.2,37.0,29.99,North,355,8.0,16.0,34,0.00,,,0.00,meteohub,2013-04-03 21:20:00,
2013-04-03 17:25:00,43.0,36.1,29.98,WNW,286,6.0,16.0,34,0.00,,,0.00,meteohub,2013-04-03 21:25:00,
2013-04-03 17:30:00,43.0,37.2,29.99,North,5,3.0,16.0,34,0.00,,,0.00,meteohub,2013-04-03 21:30:00,
2013-04-03 17:35:00,43.0,37.4,30.00,NW,311,5.0,16.0,35,0.00,,,0.00,meteohub,2013-04-03 21:35:00,
2013-04-03 17:40:00,42.8,37.8,30.00,NNW,339,8.0,11.0,34,0.00,,,0.00,meteohub,2013-04-03 21:40:00,
2013-04-03 17:45:00,42.4,37.8,29.99,NE,44,5.0,12.0,35,0.00,,,0.00,meteohub,2013-04-03 21:45:00,
2013-04-03 17:50:00,42.3,36.7,30.00,NW,310,11.0,16.0,35,0.00,,,0.00,meteohub,2013-04-03 21:50:00,
2013-04-03 17:55:00,42.1,36.7,30.01,North,355,7.0,16.0,35,0.00,,,0.00,meteohub,2013-04-03 21:55:00,
2013-04-03 18:00:00,41.7,36.7,30.01,North,0,5.0,20.0,35,0.00,,,0.00,meteohub,2013-04-03 22:00:00,
2013-04-03 18:05:00,41.5,36.7,30.01,NW,314,10.0,20.0,35,0.00,,,0.00,meteohub,2013-04-03 22:05:00,
2013-04-03 18:10:00,41.4,35.6,30.01,NNW,338,6.0,20.0,35,0.00,,,0.00,meteohub,2013-04-03 22:10:00,
2013-04-03 18:15:00,41.4,35.6,30.01,NNW,341,4.0,14.0,35,0.00,,,0.00,meteohub,2013-04-03 22:15:00,
2013-04-03 18:20:00,41.4,36.9,30.01,NNW,339,8.0,14.0,36,0.00,,,0.00,meteohub,2013-04-03 22:20:00,
2013-04-03 18:25:00,41.0,37.0,30.02,NNW,344,6.0,14.0,36,0.00,,,0.00,meteohub,2013-04-03 22:25:00,
2013-04-03 18:30:00,40.6,37.0,30.02,NW,325,7.0,14.0,36,0.00,,,0.00,meteohub,2013-04-03 22:30:00,
2013-04-03 18:35:00,40.5,37.0,30.02,WNW,299,5.0,14.0,37,0.00,,,0.00,meteohub,2013-04-03 22:35:00,
2013-04-03 18:40:00,40.3,37.0,30.02,NNW,330,7.0,12.0,37,0.00,,,0.00,meteohub,2013-04-03 22:40:00,
2013-04-03 18:45:00,40.1,37.0,30.03,NW,313,6.0,12.0,37,0.00,,,0.00,meteohub,2013-04-03 22:45:00,
2013-04-03 18:50:00,39.9,37.0,30.03,North,355,7.0,11.0,38,0.00,,,0.00,meteohub,2013-04-03 22:50:00,
2013-04-03 18:55:00,39.7,37.0,30.03,NW,314,5.0,11.0,38,0.00,,,0.00,meteohub,2013-04-03 22:55:00,
2013-04-03 19:00:00,39.6,37.0,30.04,West,268,6.0,12.0,39,0.00,,,0.00,meteohub,2013-04-03 23:00:00,
2013-04-03 19:05:00,39.4,37.0,30.04,NW,320,8.0,12.0,39,0.00,,,0.00,meteohub,2013-04-03 23:05:00,
2013-04-03 19:10:00,39.0,38.1,30.04,NNW,336,5.0,12.0,40,0.00,,,0.00,meteohub,2013-04-03 23:10:00,
2013-04-03 19:15:00,38.8,38.3,30.05,NW,321,6.0,10.0,39,0.00,,,0.00,meteohub,2013-04-03 23:15:00,
2013-04-03 19:20:00,38.7,38.3,30.05,North,351,4.0,10.0,40,0.00,,,0.00,meteohub,2013-04-03 23:20:00,
2013-04-03 19:26:00,38.5,38.1,30.06,NW,318,2.0,12.0,41,0.00,,,0.00,meteohub,2013-04-03 23:26:00,
2013-04-03 19:32:00,38.1,37.2,30.06,NW,306,7.0,12.0,41,0.00,,,0.00,meteohub,2013-04-03 23:32:00,
2013-04-03 19:37:00,37.9,37.0,30.06,NW,310,5.0,8.0,41,0.00,,,0.00,meteohub,2013-04-03 23:37:00,
2013-04-03 19:42:00,37.8,37.0,30.06,West,268,7.0,21.0,42,0.00,,,0.00,meteohub,2013-04-03 23:42:00,
2013-04-03 19:47:00,37.6,36.9,30.06,NNW,337,7.0,21.0,42,0.00,,,0.00,meteohub,2013-04-03 23:47:00,
2013-04-03 19:52:00,37.4,36.9,30.07,NNW,338,0.0,21.0,43,0.00,,,0.00,meteohub,2013-04-03 23:52:00,
2013-04-03 19:57:00,37.2,37.9,30.08,NNW,338,3.0,13.0,43,0.00,,,0.00,meteohub,2013-04-03 23:57:00,
2013-04-03 20:02:00,37.0,38.1,30.08,North,0,3.0,9.0,43,0.00,,,0.00,meteohub,2013-04-04 00:02:00,
2013-04-03 20:07:00,37.0,38.1,30.09,WSW,254,2.0,11.0,43,0.00,,,0.00,meteohub,2013-04-04 00:07:00,
2013-04-03 20:12:00,36.9,38.1,30.09,NW,313,6.0,11.0,43,0.00,,,0.00,meteohub,2013-04-04 00:12:00,
2013-04-03 20:17:00,36.9,37.9,30.09,North,349,4.0,13.0,44,0.00,,,0.00,meteohub,2013-04-04 00:17:00,
2013-04-03 20:22:00,36.7,37.9,30.09,WNW,300,2.0,13.0,44,0.00,,,0.00,meteohub,2013-04-04 00:22:00,
2013-04-03 20:27:00,36.3,36.9,30.09,NNW,338,2.0,13.0,45,0.00,,,0.00,meteohub,2013-04-04 00:27:00,
2013-04-03 20:32:00,36.1,36.9,30.09,NW,326,6.0,11.0,45,0.00,,,0.00,meteohub,2013-04-04 00:32:00,
2013-04-03 20:37:00,36.1,37.9,30.10,NW,321,3.0,10.0,45,0.00,,,0.00,meteohub,2013-04-04 00:37:00,
2013-04-03 20:42:00,36.0,38.1,30.10,North,0,9.0,9.0,46,0.00,,,0.00,meteohub,2013-04-04 00:42:00,
2013-04-03 20:47:00,36.0,38.1,30.11,WNW,303,7.0,9.0,46,0.00,,,0.00,meteohub,2013-04-04 00:47:00,
2013-04-03 20:52:00,35.8,38.1,30.11,NNW,347,5.0,19.0,47,0.00,,,0.00,meteohub,2013-04-04 00:52:00,
2013-04-03 20:57:00,35.6,38.1,30.11,North,355,4.0,19.0,47,0.00,,,0.00,meteohub,2013-04-04 00:57:00,
2013-04-03 21:02:00,35.4,37.9,30.11,North,0,5.0,19.0,48,0.00,,,0.00,meteohub,2013-04-04 01:02:00,
2013-04-03 21:07:00,35.2,37.9,30.12,West,269,8.0,11.0,48,0.00,,,0.00,meteohub,2013-04-04 01:07:00,
2013-04-03 21:12:00,35.1,37.9,30.12,NW,317,3.0,11.0,48,0.00,,,0.00,meteohub,2013-04-04 01:12:00,
2013-04-03 21:17:00,35.1,37.9,30.12,NW,307,2.0,10.0,49,0.00,,,0.00,meteohub,2013-04-04 01:17:00,
2013-04-03 21:22:00,34.9,38.1,30.12,NNW,344,5.0,10.0,49,0.00,,,0.00,meteohub,2013-04-04 01:22:00,
2013-04-03 21:27:00,34.9,38.3,30.13,NNW,336,4.0,13.0,49,0.00,,,0.00,meteohub,2013-04-04 01:27:00,
2013-04-03 21:32:00,34.7,38.1,30.13,NNW,334,6.0,13.0,49,0.00,,,0.00,meteohub,2013-04-04 01:32:00,
2013-04-03 21:37:00,34.3,38.1,30.13,WNW,290,1.0,13.0,50,0.00,,,0.00,meteohub,2013-04-04 01:37:00,
2013-04-03 21:42:00,34.3,37.9,30.13,WSW,245,0.0,9.0,50,0.00,,,0.00,meteohub,2013-04-04 01:42:00,
2013-04-03 21:47:00,34.3,37.9,30.13,NW,319,0.0,9.0,50,0.00,,,0.00,meteohub,2013-04-04 01:47:00,
2013-04-03 21:52:00,34.3,36.7,30.14,NW,321,0.0,9.0,50,0.00,,,0.00,meteohub,2013-04-04 01:52:00,
2013-04-03 21:57:00,34.3,36.7,30.14,NW,311,5.0,11.0,50,0.00,,,0.00,meteohub,2013-04-04 01:57:00,
2013-04-03 22:02:00,34.2,36.5,30.14,NNW,346,5.0,11.0,50,0.00,,,0.00,meteohub,2013-04-04 02:02:00,
2013-04-03 22:07:00,34.3,36.3,30.14,NNW,331,10.0,12.0,50,0.00,,,0.00,meteohub,2013-04-04 02:07:00,
2013-04-03 22:12:00,34.2,36.3,30.15,WNW,298,6.0,12.0,51,0.00,,,0.00,meteohub,2013-04-04 02:12:00,
2013-04-03 22:17:00,34.2,36.3,30.15,West,281,1.0,12.0,50,0.00,,,0.00,meteohub,2013-04-04 02:17:00,
2013-04-03 22:22:00,34.0,36.1,30.14,North,350,5.0,10.0,50,0.00,,,0.00,meteohub,2013-04-04 02:22:00,
2013-04-03 22:28:00,34.0,36.1,30.15,NNW,329,2.0,9.0,51,0.00,,,0.00,meteohub,2013-04-04 02:28:00,
2013-04-03 22:33:00,33.8,36.0,30.16,WSW,238,2.0,9.0,51,0.00,,,0.00,meteohub,2013-04-04 02:33:00,
2013-04-03 22:38:00,33.6,36.0,30.16,NW,320,2.0,8.0,52,0.00,,,0.00,meteohub,2013-04-04 02:38:00,
2013-04-03 22:43:00,33.6,35.8,30.16,NW,319,2.0,8.0,52,0.00,,,0.00,meteohub,2013-04-04 02:43:00,
2013-04-03 22:48:00,33.4,35.8,30.16,NNW,332,3.0,8.0,52,0.00,,,0.00,meteohub,2013-04-04 02:48:00,
2013-04-03 22:53:00,33.4,35.6,30.16,NNW,340,4.0,7.0,52,0.00,,,0.00,meteohub,2013-04-04 02:53:00,
2013-04-03 22:58:00,33.4,35.4,30.16,North,5,2.0,7.0,52,0.00,,,0.00,meteohub,2013-04-04 02:58:00,
2013-04-03 23:03:00,33.3,35.4,30.17,NW,314,4.0,7.0,52,0.00,,,0.00,meteohub,2013-04-04 03:03:00,
2013-04-03 23:08:00,33.4,35.4,30.16,NNW,345,5.0,7.0,52,0.00,,,0.00,meteohub,2013-04-04 03:08:00,
2013-04-03 23:13:00,33.4,35.4,30.17,North,355,4.0,9.0,52,0.00,,,0.00,meteohub,2013-04-04 03:13:00,
2013-04-03 23:18:00,33.3,35.4,30.17,NNW,333,4.0,9.0,52,0.00,,,0.00,meteohub,2013-04-04 03:18:00,
2013-04-03 23:23:00,33.3,35.2,30.17,WNW,300,1.0,9.0,53,0.00,,,0.00,meteohub,2013-04-04 03:23:00,
2013-04-03 23:28:00,33.3,35.2,30.17,NNE,20,4.0,8.0,53,0.00,,,0.00,meteohub,2013-04-04 03:28:00,
2013-04-03 23:33:00,33.1,35.2,30.18,NW,309,0.0,6.0,53,0.00,,,0.00,meteohub,2013-04-04 03:33:00,
2013-04-03 23:38:00,33.1,35.2,30.18,NNW,336,4.0,5.0,53,0.00,,,0.00,meteohub,2013-04-04 03:38:00,
2013-04-03 23:43:00,32.9,35.1,30.18,WNW,287,0.0,6.0,54,0.00,,,0.00,meteohub,2013-04-04 03:43:00,
2013-04-03 23:48:00,32.7,35.1,30.18,WNW,300,2.0,7.0,53,0.00,,,0.00,meteohub,2013-04-04 03:48:00,
2013-04-03 23:53:00,32.7,34.9,30.17,WNW,300,1.0,7.0,54,0.00,,,0.00,meteohub,2013-04-04 03:53:00,
2013-04-03 23:58:00,32.5,34.9,30.18,WNW,288,0.0,5.0,54,0.00,,,0.00,meteohub,2013-04-04 03:58:00,